Location: Banff
(51.1667°N, 115.5667°W)
Time: 07:24:23
(UTC+00:00)

S-56A Canister/Altair - Pass Details

Date: 05 December 2020
Orbit: 633 x 2499 km, 38.9° (Epoch: 21 January)

Event Time Altitude Azimuth Distance (km) Brightness Sun altitude
Rises 06:34:02 0° 271° (W) 4,994 11.9 -59.1°
Enters shadow 06:35:54 - 267° (W) 4,450 11.5 -59.2°
Reaches altitude 10° 06:38:58 10° 256° (WSW) 3,604 - -59.4°
Maximum altitude 06:44:18 18° 218° (SW) 2,605 - -59.7°
Drops below altitude 10° 06:48:35 10° 178° (S) 2,779 - -60.0°
Sets 06:51:44 0° 159° (SSE) 3,468 - -60.2°
